Theta_e
303 304 304 305 305 306 306 307 307 308 308 308 308 307 307 306 306 306 307 308 310 310 312 313 318 320 320 321 323 326 326 324 325 324 324 324 326 325 325 325 327 326 325 324 322 320 320 320 319 319 319 320
301 301 302 302 303 303 303 304 304 305 306 306 306 305 304 304 304 304 305 305 307 307 307 309 312 315 317 318 319 320 322 323 325 324 324 324 325 325 324 324 325 325 325 324 322 320 320 320 320 318 318 318
297 299 300 300 300 301 301 302 302 303 303 303 302 302 302 301 301 301 303 304 304 305 305 304 305 310 312 313 314 315 318 319 319 321 322 323 322 322 323 323 324 324 324 324 322 320 319 320 318 317 316 316
296 297 298 298 299 299 299 300 300 301 300 300 300 300 299 299 298 298 298 302 298 301 302 301 301 306 310 311 311 311 312 314 316 317 317 318 319 320 321 321 323 323 324 324 322 320 320 318 317 314 313 315
295 296 297 297 297 297 297 298 298 299 298 298 297 298 298 297 296 296 296 296 296 299 296 299 300 303 306 308 309 309 309 309 311 313 316 315 316 318 319 321 321 322 323 323 322 321 319 317 314 312 313 314
295 295 296 295 294 295 294 296 296 296 296 297 295 297 295 294 295 295 295 295 297 296 297 297 299 300 302 305 306 306 307 309 309 308 308 312 314 314 316 318 321 322 322 322 321 319 318 316 313 312 313 314
293 293 294 295 294 295 295 295 294 294 295 295 295 295 295 295 294 295 294 295 296 296 297 296 298 298 300 301 303 304 304 305 308 308 308 311 313 314 313 314 319 320 325 323 320 318 317 314 312 310 312 315
292 292 293 293 294 294 294 294 294 294 294 294 295 295 295 294 294 294 294 296 296 297 296 298 297 297 297 297 299 301 300 302 303 305 307 308 309 310 310 310 312 317 320 323 321 317 316 314 312 310 311 313
291 292 291 292 292 293 293 294 293 293 293 294 294 294 293 294 294 294 294 294 294 294 294 296 295 295 294 295 296 298 296 297 299 300 301 303 305 307 309 308 309 311 317 320 319 318 317 316 312 310 309 309
291 291 290 291 291 291 292 293 293 293 293 293 294 294 293 292 292 293 293 293 293 293 294 294 294 295 294 294 294 296 295 296 297 297 298 300 301 306 306 308 307 309 311 316 318 319 316 315 310 308 307 308
290 289 290 290 290 290 290 292 292 292 293 293 294 294 294 292 291 291 292 292 292 292 293 293 294 294 294 294 293 293 294 295 295 296 296 298 299 301 306 306 307 307 308 311 315 316 316 311 308 307 307 308
288 289 289 289 290 290 291 291 290 291 292 294 293 294 293 293 292 291 290 291 291 291 292 292 293 295 294 294 294 294 293 294 294 294 295 296 297 296 299 301 306 306 307 307 310 314 314 311 307 306 305 306
287 288 288 288 288 288 291 290 289 291 292 292 293 294 294 293 291 291 291 291 291 291 290 291 292 293 293 294 294 294 293 293 293 293 293 294 295 296 297 298 301 302 306 307 307 309 311 310 307 306 306 305
286 286 286 287 287 287 289 288 289 290 291 291 292 293 293 293 292 291 291 291 291 291 291 291 291 291 292 292 293 294 293 293 293 293 293 293 294 295 296 296 298 299 301 306 306 307 307 308 307 306 304 305
285 285 285 286 286 287 287 287 288 289 290 291 292 292 293 293 292 292 291 291 291 291 291 291 290 291 291 291 293 294 293 294 294 294 293 293 293 293 294 295 296 297 298 300 306 306 305 305 304 303 303 302
284 284 285 285 285 285 286 286 286 287 288 289 291 292 292 292 292 292 291 291 291 291 290 290 291 291 291 291 292 293 294 293 294 293 294 294 294 294 294 294 294 296 297 298 300 305 305 304 303 302 300 300
283 284 284 284 284 285 285 285 285 286 287 288 289 290 291 291 291 291 291 290 290 290 290 290 290 290 291 291 291 292 294 294 294 294 294 293 294 293 293 292 293 295 295 296 298 301 304 304 302 301 300 299
283 283 283 284 284 284 284 284 284 285 286 287 287 288 289 289 290 290 290 291 290 290 289 289 289 290 290 291 292 292 292 292 293 293 293 292 293 292 292 292 291 292 292 294 296 296 299 302 304 303 301 299
283 283 283 283 283 283 284 284 283 283 284 284 285 286 286 287 288 288 289 289 289 289 289 288 288 289 290 291 292 291 291 291 292 292 292 292 291 292 292 292 291 290 290 292 293 294 296 298 301 302 301 299
283 283 283 283 283 283 284 283 283 283 282 282 283 283 284 285 286 287 287 287 288 288 289 288 288 288 289 290 291 291 290 291 291 291 292 293 293 291 291 292 291 291 290 290 291 292 293 296 299 299 300 300
283 283 282 282 282 283 283 283 283 283 282 282 282 282 282 283 283 284 285 286 286 286 287 288 288 288 289 289 289 290 290 290 291 291 291 292 293 292 291 291 290 291 292 290 289 290 291 294 297 298 298 299
283 283 282 283 283 283 283 283 283 283 282 282 282 282 282 283 282 283 283 284 285 285 286 287 288 288 288 288 288 289 289 289 290 290 291 291 293 293 292 291 290 290 290 292 292 291 291 292 293 295 297 298
283 283 283 283 282 282 282 283 283 283 282 282 282 281 282 282 282 282 282 283 284 284 284 285 286 287 288 288 287 288 288 288 289 289 290 290 290 292 292 291 291 291 291 291 291 291 291 291 291 292 294 298
282 283 282 281 281 281 282 282 282 282 282 282 282 282 282 282 282 282 282 282 283 283 284 285 286 286 287 287 287 287 287 287 287 288 289 289 290 290 291 292 291 291 291 290 290 290 290 291 292 291 292 293
282 281 281 281 280 280 280 281 281 281 282 282 282 282 282 282 282 282 282 282 282 282 282 282 283 284 286 286 286 286 286 287 288 288 288 288 289 289 289 289 291 291 291 289 288 289 289 289 292 293 292 290
282 282 282 281 280 280 280 280 280 280 281 281 281 282 282 282 282 282 282 282 282 282 282 282 281 282 282 284 284 285 286 287 287 287 288 288 287 289 287 287 290 290 290 287 286 286 287 288 290 293 293 291
282 282 282 281 281 281 280 281 281 281 281 281 281 281 282 282 282 282 281 281 282 281 280 280 280 280 281 281 283 283 284 285 286 286 286 287 286 286 288 288 290 289 290 286 288 288 286 284 285 289 292 294
282 282 282 282 281 281 281 280 282 281 281 281 281 280 281 282 281 281 280 281 280 280 280 280 279 280 280 280 281 282 282 284 284 285 286 286 286 287 284 286 287 290 290 288 287 282 283 283 285 282 285 290
282 281 281 281 281 281 280 280 280 279 279 280 280 280 280 279 280 280 280 280 279 279 279 279 279 279 280 280 281 281 281 282 284 285 286 286 286 286 285 284 285 287 289 289 290 286 284 282 281 281 285 288
279 278 278 278 277 276 276 276 276 276 276 277 277 277 279 279 279 279 279 279 279 279 279 278 279 279 280 280 280 281 281 281 283 284 285 285 286 285 286 285 285 285 288 288 289 289 288 287 283 283 285 286
279 278 278 277 277 276 276 275 276 277 278 277 277 278 278 277 278 279 278 278 279 279 278 278 279 279 280 280 280 281 280 281 283 284 285 285 285 285 286 285 283 284 285 287 287 289 288 288 288 287 284 281
Wind_Speed
24 23 23 23 23 23 23 23 22 22 21 21 22 22 22 21 23 24 25 26 26 25 25 25 24 22 20 18 18 17 16 13 11 10 7 8 9 7 4 6 9 10 12 13 13 10 9 9 8 8 7 3
22 21 22 23 23 23 22 22 22 21 21 20 20 20 19 18 19 20 22 24 26 27 25 24 23 24 22 21 19 19 17 17 15 13 13 12 13 12 5 3 7 8 12 13 13 11 10 9 7 7 7 4
13 19 19 21 21 21 21 20 21 20 19 19 18 18 17 16 14 16 20 20 22 24 24 25 24 24 22 21 20 19 17 17 16 16 15 14 13 12 11 2 5 6 13 14 14 12 10 9 7 6 5 5
12 15 18 17 18 19 19 19 18 18 18 17 17 16 16 15 12 12 12 17 15 20 21 24 23 23 20 20 20 19 18 17 17 17 17 16 13 12 11 7 3 7 9 14 14 13 10 7 6 5 6 6
12 12 15 14 15 16 17 17 17 16 16 16 15 13 13 11 10 9 8 10 10 13 12 17 20 22 22 20 18 16 16 16 16 17 16 15 15 14 12 8 2 4 8 13 14 11 9 7 5 5 6 6
11 11 12 13 12 10 13 13 13 11 11 12 10 13 10 8 8 7 7 8 9 7 10 10 16 17 19 19 17 16 15 15 15 15 15 14 15 16 16 13 3 4 6 9 12 10 9 6 5 5 6 5
11 13 11 11 12 9 11 11 11 10 10 9 10 9 9 8 8 7 6 7 7 5 8 8 11 14 16 17 17 16 13 13 14 12 13 14 13 14 15 9 4 1 0 5 9 10 7 6 5 5 5 4
11 11 11 11 10 10 9 9 9 9 9 8 10 9 8 7 7 7 6 8 10 8 6 5 9 11 13 14 14 17 10 12 11 11 10 11 12 8 5 6 7 5 1 3 5 6 6 7 6 6 2 2
11 11 11 10 10 10 9 9 8 8 9 8 8 9 8 8 6 6 6 6 7 7 6 5 6 7 7 7 8 10 8 7 7 8 7 6 6 5 5 5 6 7 5 1 4 5 7 7 5 4 2 1
11 12 11 11 11 11 10 10 9 8 8 8 8 7 8 9 8 7 6 6 6 6 6 6 5 4 4 6 7 7 5 6 6 7 6 7 5 4 5 4 5 5 7 3 0 2 5 5 4 4 3 2
11 11 11 10 10 10 10 10 10 9 8 8 8 8 7 8 8 8 7 7 7 7 6 6 6 5 3 4 5 6 5 5 5 5 5 6 6 5 1 2 4 5 5 7 4 1 3 3 4 4 3 3
11 11 11 11 11 10 10 10 10 9 9 8 7 8 8 9 8 8 8 7 7 7 7 7 6 5 4 3 4 4 4 5 4 4 4 5 6 6 6 4 2 3 5 4 7 5 3 3 4 4 4 3
10 10 11 11 11 10 11 10 10 10 9 8 7 7 7 9 8 8 8 8 8 7 7 7 6 6 5 4 5 5 4 3 4 4 4 5 5 5 5 5 4 3 1 2 3 5 5 2 4 4 4 4
10 10 10 10 11 10 10 10 11 11 9 9 8 7 8 8 8 8 8 9 8 8 8 8 7 6 6 6 5 5 4 4 4 3 4 4 4 4 4 5 5 5 4 1 1 3 5 5 4 4 4 4
10 10 9 10 9 9 10 11 10 9 9 9 8 7 8 8 8 8 8 9 9 8 9 9 8 7 6 6 6 4 4 4 4 3 2 3 4 4 4 4 4 4 5 5 1 1 3 3 4 5 2 2
8 9 9 9 8 8 9 11 10 10 9 9 8 9 9 9 9 9 9 9 9 9 10 9 9 8 8 7 7 6 4 4 3 4 4 3 3 3 4 4 4 4 5 5 4 2 3 3 2 3 4 3
7 7 8 8 8 8 8 9 10 9 9 9 9 9 9 9 10 9 8 9 9 10 9 9 9 9 9 7 7 7 6 6 5 5 4 4 3 3 3 3 4 4 4 5 5 5 3 3 4 2 2 3
6 7 6 6 6 7 7 7 8 9 9 10 9 9 10 10 10 9 9 9 9 9 9 9 9 9 9 8 8 7 8 8 6 5 4 5 4 3 2 1 2 3 4 4 4 5 5 3 4 4 3 3
7 7 7 6 6 6 6 6 6 7 8 9 9 10 9 10 10 11 11 11 10 10 9 9 9 10 9 8 8 8 8 8 7 7 6 6 4 4 3 2 2 3 3 3 4 5 5 5 3 4 3 2
8 8 8 7 7 6 6 6 5 5 6 7 8 9 9 10 11 11 12 11 11 10 9 9 9 9 9 11 9 8 9 8 8 7 7 6 5 5 4 3 2 2 2 3 4 4 5 5 4 4 4 4
9 8 9 9 8 8 7 7 6 5 5 6 7 7 8 9 11 11 11 11 11 10 10 9 9 9 10 10 10 9 9 8 8 8 7 7 7 7 5 5 4 2 3 3 5 5 5 5 5 4 4 5
9 9 9 8 7 8 8 7 7 5 6 6 7 7 7 9 10 10 11 11 11 10 10 11 10 9 10 10 10 9 9 8 8 8 8 8 7 6 6 6 5 5 4 3 3 4 5 6 6 5 5 5
10 11 9 8 9 9 9 7 7 7 7 7 7 7 8 9 9 9 10 10 10 10 10 10 11 11 11 10 10 10 9 9 9 9 8 9 9 8 8 7 7 6 5 4 3 4 6 7 7 6 6 4
11 10 10 10 10 9 9 9 8 8 8 8 8 8 9 9 9 9 8 9 9 10 10 10 10 11 11 11 10 10 10 10 9 9 9 10 9 10 9 9 8 7 7 7 8 7 7 7 7 8 7 8
11 13 13 12 11 11 10 9 11 10 9 9 9 10 10 10 9 9 9 9 9 9 10 10 10 11 11 11 11 11 11 11 11 11 10 9 9 9 10 8 8 8 7 7 8 7 9 9 8 10 10 10
12 12 12 12 12 12 12 12 12 12 10 11 11 12 10 9 9 10 10 10 9 9 9 10 10 11 11 11 11 12 13 14 13 13 11 10 10 9 10 9 9 8 7 8 7 7 6 6 7 9 10 10
12 13 13 12 13 14 13 12 12 12 13 13 12 11 11 12 12 12 11 11 10 9 10 12 12 12 12 12 12 12 12 12 13 11 11 12 11 9 9 10 9 9 9 8 7 7 7 6 6 5 8 8
14 13 14 14 13 14 13 13 13 14 14 14 15 14 14 13 13 13 12 12 13 13 12 13 14 13 12 13 12 13 13 13 14 13 11 11 11 10 11 9 9 9 10 8 7 6 6 6 6 7 7 8
15 12 12 11 12 12 12 12 12 13 12 14 14 13 14 14 14 14 14 14 15 15 16 15 15 14 13 12 12 12 13 13 13 13 12 12 11 11 10 11 9 9 10 11 10 8 5 4 5 6 6 5
12 11 10 10 10 11 11 12 13 13 14 13 13 15 15 16 17 18 16 15 15 15 15 16 16 14 13 13 12 12 13 14 13 14 14 12 11 12 12 11 10 10 10 10 12 12 10 8 3 2 4 5
12 11 11 13 13 13 13 13 13 13 14 14 14 13 16 15 17 17 18 16 16 13 15 15 13 13 13 13 13 13 13 14 14 13 13 12 11 11 10 11 11 11 9 9 11 10 11 12 10 9 6 4
Wind_Direction
33 33 33 34 35 35 35 34 35 36 37 38 36 37 35 29 28 25 20 20 18 21 20 18 18 26 32 31 25 44 47 48 50 44 27 24 20 28 300 224 206 191 195 187 173 185 185 185 193 212 246 237
30 28 30 31 32 33 32 32 32 34 34 34 33 35 35 33 27 30 24 20 17 17 14 14 12 15 24 28 23 25 35 39 45 48 41 36 33 34 37 183 213 183 199 186 177 180 183 184 193 218 245 258
27 23 24 27 27 29 28 28 28 29 30 31 30 28 27 30 30 30 29 22 19 18 9 9 8 10 15 25 24 19 23 37 35 37 36 34 26 26 24 340 225 209 194 198 185 183 180 180 186 205 245 246
19 22 19 21 21 23 24 24 25 25 25 23 24 22 21 21 19 24 27 29 24 13 13 8 6 5 9 17 20 19 16 24 33 33 29 28 22 17 14 9 298 216 213 209 195 184 173 169 180 194 205 232
13 16 17 17 16 16 19 19 18 22 22 22 16 13 15 16 18 13 15 21 22 15 14 7 5 2 360 7 13 15 11 17 29 33 30 24 18 11 357 352 297 206 211 209 193 180 158 162 194 210 205 216
11 5 13 15 10 13 13 13 13 16 17 18 14 7 8 14 17 11 9 11 17 14 9 3 359 0 357 358 4 7 8 7 20 30 25 24 23 10 356 329 285 191 194 205 198 166 160 176 216 216 218 220
11 5 7 9 8 3 12 8 8 12 14 14 11 9 4 9 12 2 0 5 3 348 11 2 2 359 357 357 352 359 3 3 9 20 23 22 26 15 358 347 336 344 212 197 191 158 168 205 208 219 247 229
10 4 5 4 5 357 6 4 360 6 7 11 8 5 5 4 2 356 356 354 352 355 359 351 358 4 354 354 343 353 357 355 3 3 15 15 19 21 6 352 343 340 77 174 159 184 183 207 209 209 223 294
7 2 3 2 0 354 3 353 357 2 357 3 3 5 3 355 358 354 356 355 349 354 355 349 350 1 355 348 334 349 353 349 352 1 3 5 13 12 14 3 344 337 349 101 178 212 200 209 207 201 199 229
1 1 2 359 359 352 2 347 353 355 352 354 354 6 2 356 352 355 350 350 349 343 349 349 349 355 350 336 327 345 351 335 349 357 356 358 8 4 9 2 344 340 338 343 28 263 242 210 208 200 196 172
1 360 359 357 354 350 358 346 350 349 346 345 346 356 5 357 350 347 346 349 347 348 347 341 339 334 337 330 321 332 332 334 335 354 353 348 357 4 5 360 359 339 349 338 317 265 259 221 224 213 193 173
360 357 356 354 351 349 352 347 348 345 338 333 344 352 357 358 345 343 344 342 346 342 341 337 327 323 322 320 317 313 318 327 335 338 351 352 350 354 348 342 45 5 347 349 335 297 241 231 222 219 214 206
358 355 355 352 350 348 347 348 344 337 330 333 342 342 356 353 342 342 340 337 338 338 333 331 328 321 314 312 311 306 307 315 334 341 342 350 353 344 342 338 343 353 20 346 343 321 304 263 229 219 215 212
354 354 353 352 348 345 347 346 335 332 334 332 332 336 350 346 339 338 336 331 332 331 329 327 319 316 318 314 297 297 309 323 330 336 337 335 338 346 333 329 343 339 327 19 21 325 317 316 273 233 218 217
351 351 351 348 344 344 348 341 332 333 332 331 326 336 343 336 337 336 330 329 328 326 327 321 316 316 315 308 304 300 302 305 314 317 315 322 328 333 326 318 331 327 321 312 166 233 298 305 323 315 307 257
347 348 345 344 342 342 346 339 335 331 329 328 330 334 335 332 332 328 327 327 328 327 322 317 314 314 311 306 303 306 310 303 299 295 298 300 302 302 308 319 319 324 317 311 309 325 300 309 307 291 303 300
338 337 337 338 337 337 341 338 335 330 327 330 329 327 326 325 323 325 326 326 326 324 318 314 314 309 304 304 303 304 303 297 280 279 289 295 280 279 295 309 316 318 313 306 306 311 315 296 287 269 279 293
328 327 326 324 325 326 334 336 334 331 333 333 330 326 325 324 325 325 325 324 322 318 315 313 309 306 306 302 303 308 309 298 291 285 280 280 283 282 261 312 309 314 302 300 316 313 308 300 290 274 245 248
314 318 315 313 313 313 316 325 326 329 334 331 328 327 324 326 326 325 325 324 316 312 311 310 307 305 303 307 313 307 296 291 290 286 281 272 268 272 271 228 253 267 280 296 298 299 300 298 293 281 283 278
306 307 309 305 302 301 305 305 309 311 327 327 325 323 324 326 327 326 321 316 313 308 305 305 303 303 307 308 302 300 299 295 287 282 276 273 264 263 250 217 225 233 272 277 284 288 286 284 288 285 276 261
300 299 301 302 301 296 301 301 300 305 314 318 315 314 319 326 326 317 313 313 314 308 302 299 298 300 301 301 300 295 292 288 286 282 279 272 270 270 271 266 251 213 218 247 257 267 269 272 272 267 265 264
299 300 297 294 296 297 292 291 292 292 302 307 306 308 311 319 317 313 310 309 308 305 302 297 294 294 297 298 295 291 289 288 287 287 286 283 275 268 267 261 258 250 223 217 236 248 263 264 263 259 250 247
299 298 292 293 297 300 299 296 296 297 300 298 300 299 306 310 311 307 306 307 307 304 302 297 294 292 291 293 293 292 289 285 282 275 271 269 268 266 263 264 263 265 268 269 248 235 233 239 245 260 263 234
294 291 292 303 300 294 297 297 301 300 296 296 295 298 304 307 302 299 305 309 306 301 300 300 297 295 298 294 288 286 283 281 277 276 272 264 262 262 260 259 261 257 261 261 258 257 253 233 223 233 242 245
296 297 302 297 296 300 305 302 300 300 300 299 301 304 306 301 298 300 306 305 307 304 301 301 299 297 294 293 289 282 278 276 273 274 277 279 279 274 267 257 248 249 250 258 260 256 254 249 219 213 223 230
294 291 295 297 300 301 299 302 299 297 301 307 309 305 299 297 299 307 309 307 304 305 308 304 303 299 292 288 285 284 281 279 277 273 270 273 270 258 256 254 247 247 240 241 249 261 271 257 239 203 213 222
297 294 294 295 297 298 297 293 292 294 299 298 293 289 292 298 301 303 305 306 307 310 307 299 294 290 287 282 280 280 279 276 272 266 264 259 256 257 252 251 245 239 234 249 248 256 265 265 269 231 204 212
303 296 296 297 298 295 293 296 298 298 294 294 299 300 299 300 302 302 299 299 306 302 297 295 291 286 280 277 273 272 271 268 266 264 262 258 253 251 255 253 250 234 236 240 240 245 239 259 267 270 237 218
314 303 307 304 297 298 301 297 297 295 295 297 297 299 301 298 295 297 300 300 298 297 295 292 288 281 276 274 273 271 269 268 266 264 258 255 254 248 248 250 250 253 241 234 236 245 249 240 240 245 266 301
359 354 336 327 322 314 307 302 297 296 297 300 301 296 297 297 300 300 296 295 294 295 293 289 285 277 272 271 269 265 265 264 261 258 257 251 250 249 247 251 251 248 245 244 237 239 244 254 277 290 357 336
345 331 320 317 314 307 304 300 297 297 299 300 296 299 297 297 297 292 293 291 290 293 294 289 285 283 280 278 274 272 271 266 259 255 252 252 248 247 245 240 244 244 246 246 242 238 240 250 259 268 270 274